TimeEST,TemperatureF,Dew PointF,Humidity,Sea Level PressureIn,VisibilityMPH,Wind Direction,Wind SpeedMPH,Gust SpeedMPH,PrecipitationIn,Events,Conditions,WindDirDegrees,DateUTC
12:53 AM,39.0,35.1,86,29.50,10.0,SE,16.1,26.5,0.01,Rain,Light Rain,140,2013-02-27 05:53:00
1:46 AM,39.2,35.6,87,29.49,10.0,SE,13.8,21.9,0.00,,Overcast,140,2013-02-27 06:46:00
1:53 AM,39.0,35.1,86,29.50,10.0,SSE,15.0,20.7,0.00,Rain,Light Rain,150,2013-02-27 06:53:00
2:03 AM,39.2,35.6,87,29.49,10.0,SSE,15.0,20.7,0.00,Rain,Light Rain,150,2013-02-27 07:03:00
2:53 AM,39.0,36.0,89,29.49,10.0,SSE,11.5,-,0.02,Rain,Light Rain,160,2013-02-27 07:53:00
3:53 AM,39.0,37.0,93,29.49,6.0,SSE,12.7,-,0.02,Rain,Light Rain,150,2013-02-27 08:53:00
4:11 AM,39.2,37.4,93,29.48,9.0,SSE,13.8,17.3,0.00,Rain,Light Rain,150,2013-02-27 09:11:00
4:53 AM,39.0,37.0,93,29.51,9.0,South,4.6,-,0.01,,Overcast,190,2013-02-27 09:53:00
5:53 AM,39.0,37.9,96,29.52,7.0,SSE,9.2,-,0.04,Rain,Light Rain,150,2013-02-27 10:53:00
6:53 AM,39.9,39.0,97,29.53,8.0,South,9.2,-,0.02,,Overcast,190,2013-02-27 11:53:00
7:53 AM,41.0,37.0,86,29.55,10.0,SSW,11.5,-,N/A,,Overcast,210,2013-02-27 12:53:00
8:29 AM,41.0,35.6,81,29.55,10.0,SSW,11.5,-,N/A,,Overcast,210,2013-02-27 13:29:00
8:53 AM,42.1,37.0,82,29.57,10.0,SSW,11.5,21.9,N/A,,Overcast,200,2013-02-27 13:53:00
9:09 AM,41.0,37.4,87,29.56,10.0,SW,11.5,23.0,N/A,,Overcast,220,2013-02-27 14:09:00
10:53 AM,42.1,37.0,82,29.58,10.0,SSW,13.8,21.9,N/A,,Overcast,210,2013-02-27 15:53:00
11:53 AM,43.0,37.0,80,29.58,10.0,SW,15.0,21.9,N/A,,Overcast,220,2013-02-27 16:53:00
12:53 PM,43.0,36.0,76,29.59,10.0,SW,12.7,17.3,N/A,,Overcast,220,2013-02-27 17:53:00
1:23 PM,42.8,35.6,76,29.57,10.0,SSW,12.7,21.9,N/A,,Overcast,210,2013-02-27 18:23:00
1:53 PM,42.1,35.1,76,29.58,10.0,SW,12.7,20.7,0.00,Rain,Light Rain,220,2013-02-27 18:53:00
2:53 PM,35.1,34.0,96,29.60,4.0,West,4.6,-,0.00,Rain,Light Rain,260,2013-02-27 19:53:00
3:06 PM,35.6,33.8,93,29.59,5.0,WSW,3.5,-,0.01,,Overcast,250,2013-02-27 20:06:00
3:17 PM,35.6,33.8,93,29.59,5.0,WSW,3.5,-,0.01,,Overcast,240,2013-02-27 20:17:00
3:53 PM,35.1,34.0,96,29.62,4.0,West,9.2,-,0.04,Rain,Light Rain,280,2013-02-27 20:53:00
4:00 PM,33.8,33.8,100,29.60,4.0,WSW,5.8,-,0.01,Rain,Light Rain,240,2013-02-27 21:00:00
4:18 PM,35.6,33.8,93,29.60,6.0,WSW,10.4,18.4,0.03,Rain,Light Rain,250,2013-02-27 21:18:00
4:37 PM,37.4,33.8,87,29.60,10.0,SW,16.1,21.9,0.03,,Overcast,230,2013-02-27 21:37:00
4:45 PM,37.4,33.8,87,29.60,9.0,SW,16.1,-,0.03,,Overcast,230,2013-02-27 21:45:00
4:53 PM,37.0,34.0,89,29.62,10.0,WSW,13.8,23.0,0.03,,Overcast,240,2013-02-27 21:53:00
5:01 PM,35.6,33.8,93,29.61,8.0,WSW,12.7,-,0.00,,Overcast,240,2013-02-27 22:01:00
5:27 PM,35.6,33.8,93,29.61,8.0,SW,13.8,19.6,0.01,,Overcast,220,2013-02-27 22:27:00
5:53 PM,36.0,33.1,89,29.63,10.0,SW,10.4,-,0.01,,Overcast,230,2013-02-27 22:53:00
6:08 PM,35.6,33.8,93,29.62,9.0,SW,12.7,-,0.01,,Overcast,230,2013-02-27 23:08:00
6:16 PM,35.6,33.8,93,29.62,9.0,SW,12.7,-,0.01,,Overcast,220,2013-02-27 23:16:00
6:53 PM,35.1,33.1,92,29.64,9.0,SW,6.9,-,0.02,,Overcast,220,2013-02-27 23:53:00
7:53 PM,35.1,33.1,92,29.64,8.0,SW,9.2,-,0.00,,Overcast,230,2013-02-28 00:53:00
8:53 PM,35.1,32.0,89,29.64,10.0,SW,12.7,-,0.01,,Overcast,230,2013-02-28 01:53:00
9:01 PM,35.6,32.0,87,29.62,10.0,SW,9.2,18.4,N/A,,Overcast,220,2013-02-28 02:01:00
9:12 PM,35.6,32.0,87,29.62,10.0,SSW,8.1,-,N/A,,Overcast,210,2013-02-28 02:12:00
9:32 PM,35.6,32.0,87,29.62,10.0,SW,9.2,-,N/A,,Overcast,220,2013-02-28 02:32:00
9:53 PM,34.0,30.9,89,29.63,9.0,SSW,13.8,-,N/A,,Overcast,200,2013-02-28 02:53:00
10:53 PM,34.0,30.9,89,29.62,10.0,SSW,12.7,-,N/A,,Overcast,210,2013-02-28 03:53:00
11:53 PM,34.0,30.0,85,29.61,10.0,SW,12.7,-,N/A,,Overcast,220,2013-02-28 04:53:00